Del Bajio, Mexico

7:34 AM CDT on April 19, 2018 (GMT -0500)
De Guanajuato International

Weather History for MMLO - September, 2013

Change the Weather History Date:

Friday, September 27, 2013

  Actual Average Record
Temperature  
Mean Temperature 69 °F -  
Max Temperature 78 °F 79 °F 87 °F (2011)
Min Temperature 60 °F 56 °F 48 °F (2008)
Cooling Degree Days 4    
Growing Degree Days 19 (Base 50)    
Moisture  
Dew Point 59 °F    
Average Humidity 76    
Maximum Humidity 94    
Minimum Humidity 44    
Precipitation  
Precipitation 0.00 in - - ()
Sea Level Pressure  
Sea Level Pressure 30.07 in    
Wind  
Wind Speed 4 mph ()    
Max Wind Speed 14 mph    
Max Gust Speed -    
Visibility 9.1 miles    
Events      
Averages and records for this station are not official NWS values.
T = Trace of Precipitation, MM = Missing Value Source: Averaged Metar Reports

Daily Weather History Graph

Daily Weather History Graph

Search for Another Location

Airport or City:

Astronomy

Sep. 27, 2013 Rise Set
Actual Time 7:36 AM CDT 7:37 PM CDT
Civil Twilight 7:13 AM CDT 7:59 PM CDT
Nautical Twilight 6:48 AM CDT 8:24 PM CDT
Astronomical Twilight 6:22 AM CDT 8:50 PM CDT
Moon 1:13 AM CDT (9/27) 2:37 PM CDT (9/27)
Length of Visible Light 12h 45m
Length of Day
12h 01m
Last Quarter, 45% of the Moon is Illuminated
Sep 27
Last Quarter
Oct 4
New
Oct 11
First Quarter
Oct 18
Full
Oct 26
Last Quarter

Hourly Weather History & Observations

Time (CDT) Temp. Dew Point Humidity Pressure Visibility Wind Dir Wind Speed Gust Speed Precip Events Conditions
12:41 AM 62.6 °F 59.0 °F 88% 29.78 in 8.0 mi ESE 6.9 mph - N/A   Overcast
1:45 AM 62.6 °F 59.0 °F 88% 30.18 in 8.0 mi ESE 5.8 mph - N/A   Overcast
2:48 AM 62.6 °F 59.0 °F 88% 30.18 in 8.0 mi Calm Calm - N/A   Overcast
4:45 AM 62.6 °F 59.0 °F 88% 30.26 in 8.0 mi Calm Calm - N/A   Overcast
5:40 AM 60.8 °F 57.2 °F 88% 30.17 in 8.0 mi Calm Calm - N/A   Overcast
6:48 AM 60.8 °F 59.0 °F 94% 29.83 in 8.0 mi Calm Calm - N/A   Overcast
7:50 AM 60.8 °F 57.2 °F 88% 30.17 in 10.0 mi Calm Calm - N/A   Mostly Cloudy
8:45 AM 60.8 °F 59.0 °F 94% 30.18 in 10.0 mi Calm Calm - N/A   Mostly Cloudy
9:49 AM 66.2 °F 60.8 °F 83% 29.87 in 10.0 mi SE 4.6 mph - N/A   Mostly Cloudy
10:45 AM 71.6 °F 59.0 °F 64% 30.24 in 10.0 mi ESE 5.8 mph - N/A   Mostly Cloudy
11:45 AM 71.6 °F 57.2 °F 60% 30.24 in 10.0 mi SE 9.2 mph - N/A   Mostly Cloudy
12:42 PM 75.2 °F 59.0 °F 57% 29.84 in 10.0 mi SSE 5.8 mph - N/A   Mostly Cloudy
1:45 PM 75.2 °F 60.8 °F 61% 30.18 in 10.0 mi South 4.6 mph - N/A   Mostly Cloudy
2:49 PM 77.0 °F 57.2 °F 50% 30.15 in 10.0 mi ESE 13.8 mph - N/A   Mostly Cloudy
3:47 PM 77.0 °F 57.2 °F 50% 29.75 in 10.0 mi SE 6.9 mph - N/A   Mostly Cloudy
4:40 PM 78.8 °F 55.4 °F 44% 30.12 in 10.0 mi SE 10.4 mph - N/A   Mostly Cloudy
5:46 PM 78.8 °F 55.4 °F 44% 30.09 in 10.0 mi South 8.1 mph - N/A   Mostly Cloudy
6:47 PM 71.6 °F 59.0 °F 64% 29.75 in 10.0 mi West 10.4 mph - N/A   Mostly Cloudy
7:58 PM 64.4 °F 60.8 °F 88% 30.15 in 10.0 mi WNW 5.8 mph - N/A   Mostly Cloudy
8:40 PM 64.4 °F 60.8 °F 88% 30.18 in 8.0 mi Calm Calm - N/A   Mostly Cloudy
9:42 PM 64.4 °F 60.8 °F 88% 29.86 in 8.0 mi Calm Calm - N/A   Mostly Cloudy
10:46 PM 62.6 °F 60.8 °F 94% 30.24 in 8.0 mi Calm Calm - N/A   Mostly Cloudy
11:47 PM 62.6 °F 60.8 °F 94% 30.24 in 8.0 mi Calm Calm - N/A   Mostly Cloudy